KB0BDN-13 Weather Reports


time (UTC)temp
C
wind
direction
speed
KPH
gust
KPH
rain 1hr
cm
rain 24hr
cm
rain mn
cm
humidity
%
barometer
mb
20260906203133 26 126 0.0 0.0 0.00 0.00 0.00 60 1011.5
20260906202911 26 126 0.0 4.8 0.00 0.00 0.00 61 1011.5
20260906201633 27 126 0.0 4.8 0.00 0.00 0.00 59 1011.5
20260906201412 27 126 1.6 4.8 0.00 0.00 0.00 59 1011.2
20260906200133 27 126 0.0 1.6 0.00 0.00 0.00 57 1011.2
20260906195913 27 126 6.4 8.0 0.00 0.00 0.00 58 1011.3
20260906194638 28 126 3.2 8.0 0.00 0.00 0.00 57 1011.3
20260906194412 28 126 8.0 8.0 0.00 0.00 0.00 58 1011.5
20260906193138 28 126 1.6 1.6 0.00 0.00 0.00 58 1011.5
20260906191638 28 126 0.0 4.8 0.00 0.00 0.00 57 1011.7
20260906190138 27 126 0.0 0.0 0.00 0.00 0.00 56 1011.9
20260906185912 27 126 0.0 4.8 0.00 0.00 0.00 56 1012.2
20260906184638 27 126 1.6 4.8 0.00 0.00 0.00 57 1012.2
20260906184411 27 126 3.2 4.8 0.00 0.00 0.00 57 1012.3
20260906183138 27 126 0.0 1.6 0.00 0.00 0.00 58 1012.3
20260906181638 27 126 0.0 3.2 0.00 0.00 0.00 59 1012.4
20260906180138 26 126 0.0 0.0 0.00 0.00 0.00 61 1012.4
20260906175911 26 126 1.6 6.4 0.00 0.00 0.00 61 1012.7
20260906174638 26 126 0.0 6.4 0.00 0.00 0.00 61 1012.7
20260906174413 26 126 0.0 6.4 0.00 0.00 0.00 61 1012.9
20260906173138 26 126 0.0 0.0 0.00 0.00 0.00 63 1012.9
20260906172911 26 126 1.6 6.4 0.00 0.00 0.00 62 1013.1
20260906171637 26 126 0.0 4.8 0.00 0.00 0.00 64 1013.1
20260906170137 26 126 1.6 4.8 0.00 0.00 0.00 64 1013.4
20260906165911 26 126 0.0 3.2 0.00 0.00 0.00 64 1013.5
20260906164637 25 126 0.0 3.2 0.00 0.00 0.00 66 1013.5
20260906164410 25 126 0.0 3.2 0.00 0.00 0.00 65 1013.6
20260906163137 25 126 0.0 0.0 0.00 0.00 0.00 65 1013.6
20260906162908 25 126 0.0 3.2 0.00 0.00 0.00 65 1013.5
20260906161637 25 126 0.0 3.2 0.00 0.00 0.00 67 1013.5
20260906161411 25 126 3.2 3.2 0.00 0.00 0.00 66 1013.4
20260906160137 24 126 0.0 0.0 0.00 0.00 0.00 66 1013.4
20260906155909 25 126 0.0 4.8 0.00 0.00 0.00 66 1013.3
20260906154637 24 126 0.0 4.8 0.00 0.00 0.00 68 1013.3
20260906154409 24 126 0.0 4.8 0.00 0.00 0.00 67 1013.2
20260906153137 23 126 0.0 0.0 0.00 0.00 0.00 71 1013.2
20260906152911 23 126 0.0 4.8 0.00 0.00 0.00 69 1013.3
20260906151637 23 126 0.0 3.2 0.00 0.00 0.00 70 1013.3
20260906151410 23 126 3.2 3.2 0.00 0.00 0.00 70 1013.4
20260906150137 22 126 0.0 0.0 0.00 0.00 0.00 75 1013.4
20260906145910 22 126 0.0 4.8 0.00 0.00 0.00 73 1013.6
20260906144637 21 126 0.0 4.8 0.00 0.00 0.00 74 1013.6
20260906144411 21 126 1.6 4.8 0.00 0.00 0.00 75 1013.7
20260906143137 20 126 0.0 0.0 0.00 0.00 0.00 77 1013.7
20260906142909 20 126 1.6 4.8 0.00 0.00 0.00 78 1013.7
20260906141637 19 126 0.0 4.8 0.00 0.00 0.00 81 1013.7
20260906141411 18 126 0.0 4.8 0.00 0.00 0.00 82 1013.8
20260906140137 17 126 0.0 0.0 0.00 0.00 0.00 88 1013.8
20260906135910 17 126 0.0 4.8 0.00 0.00 0.00 90 1013.8
20260906134637 16 126 0.0 4.8 0.00 0.00 0.00 96 1013.8
20260906133136 15 126 0.0 0.0 0.00 0.00 0.00 99 1013.7
20260906132909 15 126 0.0 4.8 0.00 0.00 0.00 99 1013.8
20260906131636 13 126 0.0 4.8 0.00 0.00 0.00 99 1013.8
20260906130136 13 126 0.0 0.0 0.00 0.00 0.00 99 1013.9
20260906125909 13 126 0.0 1.6 0.00 0.00 0.00 99 1013.8
20260906124636 12 126 0.0 1.6 0.00 0.00 0.00 99 1013.8
20260906124410 11 126 0.0 1.6 0.00 0.00 0.00 99 1013.6
20260906123136 11 126 0.0 0.0 0.00 0.00 0.00 99 1013.6
20260906122909 11 126 0.0 0.0 0.00 0.00 0.00 99 1013.5
20260906121636 11 126 0.0 0.0 0.00 0.00 0.00 99 1013.5
20260906121409 10 126 0.0 0.0 0.00 0.00 0.00 98 1013.4
20260906120136 10 126 0.0 0.0 0.00 0.00 0.00 98 1013.4
20260906114636 10 126 0.0 0.0 0.00 0.00 0.00 98 1013.4
20260906114409 10 126 0.0 0.0 0.00 0.00 0.00 98 1013.3
20260906113136 10 126 0.0 0.0 0.00 0.00 0.00 98 1013.3
20260906112908 10 126 0.0 0.0 0.00 0.00 0.00 98 1013.1
20260906111636 10 126 0.0 0.0 0.00 0.00 0.00 98 1013.1
20260906111409 10 126 0.0 0.0 0.00 0.00 0.00 98 1012.9
20260906110136 10 126 0.0 0.0 0.00 0.00 0.00 98 1012.9
20260906105911 11 126 0.0 0.0 0.00 0.00 0.00 98 1012.9
20260906104636 11 126 0.0 0.0 0.00 0.00 0.00 98 1012.9
20260906104413 11 126 0.0 0.0 0.00 0.00 0.00 98 1012.8
20260906103135 11 126 0.0 0.0 0.00 0.00 0.00 98 1012.8
20260906102913 11 126 0.0 0.0 0.00 0.00 0.00 98 1012.5
20260906101635 11 126 0.0 0.0 0.00 0.00 0.00 98 1012.5
20260906101413 11 126 0.0 0.0 0.00 0.00 0.00 98 1012.5
20260906100135 11 126 0.0 0.0 0.00 0.00 0.00 98 1012.5
20260906095913 11 126 0.0 0.0 0.00 0.00 0.00 98 1012.4
20260906094635 11 126 0.0 0.0 0.00 0.00 0.00 98 1012.4
20260906094413 11 126 0.0 0.0 0.00 0.00 0.00 98 1012.5
20260906093134 11 126 0.0 0.0 0.00 0.00 0.00 98 1012.5
20260906092913 11 126 0.0 0.0 0.00 0.00 0.00 98 1012.7
20260906091634 11 126 0.0 0.0 0.00 0.00 0.00 98 1012.7
20260906091413 11 126 0.0 0.0 0.00 0.00 0.00 98 1012.8
20260906090134 11 126 0.0 0.0 0.00 0.00 0.00 98 1012.8
20260906084634 11 126 0.0 0.0 0.00 0.00 0.00 98 1012.8
20260906083134 11 126 0.0 0.0 0.00 0.00 0.00 98 1012.7
20260906082912 11 126 0.0 0.0 0.00 0.00 0.00 98 1012.8
20260906081637 12 126 0.0 0.0 0.00 0.00 0.00 98 1012.8
20260906081410 12 126 0.0 0.0 0.00 0.00 0.00 98 1012.8
20260906080137 11 126 0.0 0.0 0.00 0.00 0.00 98 1012.8
20260906075910 11 126 0.0 0.0 0.00 0.00 0.00 98 1012.8
20260906074637 11 126 0.0 0.0 0.00 0.00 0.00 97 1012.8
20260906073137 11 126 0.0 0.0 0.00 0.00 0.00 97 1012.9
20260906072909 11 126 0.0 0.0 0.00 0.00 0.00 97 1012.7
20260906071637 11 126 0.0 0.0 0.00 0.00 0.00 97 1012.7
20260906071410 11 126 0.0 0.0 0.00 0.00 0.00 97 1012.9
20260906070137 11 126 0.0 0.0 0.00 0.00 0.00 97 1012.9
20260906065910 11 126 0.0 0.0 0.00 0.00 0.00 97 1013.2
20260906064637 12 126 0.0 0.0 0.00 0.00 0.00 97 1013.2
20260906063137 12 126 0.0 0.0 0.00 0.00 0.00 97 1013.3
20260906062910 12 126 0.0 0.0 0.00 0.00 0.00 97 1013.3
20260906061637 12 126 0.0 0.0 0.00 0.00 0.00 97 1013.3
20260906061410 12 126 0.0 0.0 0.00 0.00 0.00 97 1013.3
20260906060136 12 126 0.0 0.0 0.00 0.00 0.00 97 1013.3
20260906055910 12 126 0.0 4.8 0.00 0.00 0.00 97 1012.8
20260906054636 12 126 0.0 3.2 0.00 0.00 0.00 96 1012.8
20260906054408 11 126 0.0 3.2 0.00 0.00 0.00 96 1013.1
20260906053136 12 126 0.0 0.0 0.00 0.00 0.00 96 1013.1
20260906052910 12 126 0.0 0.0 0.00 0.00 0.00 96 1012.8
20260906051636 12 126 0.0 0.0 0.00 0.00 0.00 96 1012.8
20260906050136 12 126 0.0 0.0 0.00 0.00 0.00 95 1012.8
20260906045909 12 126 0.0 0.0 0.00 0.00 0.00 95 1012.7
20260906044636 12 126 0.0 0.0 0.00 0.00 0.00 95 1012.7
20260906044408 12 126 0.0 0.0 0.00 0.00 0.00 95 1012.6
20260906043135 12 126 0.0 0.0 0.00 0.00 0.00 94 1012.6
20260906042912 12 126 0.0 0.0 0.00 0.00 0.00 94 1012.8
20260906041633 13 126 0.0 0.0 0.00 0.00 0.00 94 1012.8
20260906041411 13 126 0.0 0.0 0.00 0.00 0.00 94 1012.6
20260906040137 13 126 0.0 0.0 0.00 0.00 0.00 92 1012.6
20260906035910 13 126 0.0 0.0 0.00 0.00 0.00 92 1012.6
20260906034637 13 126 0.0 0.0 0.00 0.00 0.00 91 1012.6
20260906034410 13 126 0.0 0.0 0.00 0.00 0.00 91 1012.6
20260906033137 14 126 0.0 0.0 0.00 0.00 0.00 90 1012.6
20260906032910 14 126 0.0 0.0 0.00 0.00 0.00 90 1012.5
20260906031637 15 126 0.0 0.0 0.00 0.00 0.00 88 1012.5
20260906031409 15 126 0.0 0.0 0.00 0.00 0.00 88 1012.4
20260906030221 16 126 0.0 4.8 0.00 0.00 0.00 86 1012.3
20260906030137 16 126 0.0 0.0 0.00 0.00 0.00 86 1012.4
20260906025910 16 126 0.0 4.8 0.00 0.00 0.00 86 1012.3
20260906024637 16 126 0.0 4.8 0.00 0.00 0.00 84 1012.3
20260906024410 16 126 0.0 4.8 0.00 0.00 0.00 84 1011.8
20260906023137 17 126 0.0 4.8 0.00 0.00 0.00 83 1011.8
20260906022910 17 126 0.0 4.8 0.00 0.00 0.00 83 1012.0
20260906021637 17 126 0.0 4.8 0.00 0.00 0.00 83 1012.0
20260906020137 17 126 0.0 0.0 0.00 0.00 0.00 85 1011.9
20260906015910 17 126 0.0 3.2 0.00 0.00 0.00 85 1011.8
20260906014637 17 126 0.0 3.2 0.00 0.00 0.00 86 1011.8
20260906014410 17 126 0.0 3.2 0.00 0.00 0.00 85 1011.4
20260906013136 17 126 0.0 0.0 0.00 0.00 0.00 87 1011.4
20260906012910 17 126 0.0 1.6 0.00 0.00 0.00 86 1011.4
20260906011636 17 126 0.0 0.0 0.00 0.00 0.00 87 1011.4
20260906010136 17 126 0.0 0.0 0.00 0.00 0.00 87 1011.4
20260906005910 17 126 0.0 1.6 0.00 0.00 0.00 87 1011.3
20260906004636 17 126 0.0 1.6 0.00 0.00 0.00 88 1011.3
20260906004450 17 126 0.0 1.6 0.00 0.00 0.00 88 1011.1
20260906004409 17 126 0.0 1.6 0.00 0.00 0.00 88 1011.1
20260906003136 17 126 0.0 0.0 0.00 0.00 0.00 86 1011.1
20260906001636 18 126 0.0 0.0 0.00 0.00 0.00 85 1011.0
20260906000136 18 126 0.0 0.0 0.00 0.00 0.00 82 1010.9
20260905234636 20 126 0.0 0.0 0.00 0.00 0.00 81 1010.9
20260905234414 20 126 0.0 0.0 0.00 0.00 0.00 82 1010.9
20260905233136 20 126 0.0 0.0 0.00 0.00 0.00 82 1010.9
20260905231636 20 126 0.0 0.0 0.00 0.00 0.00 81 1011.0
20260905231414 20 126 0.0 0.0 0.00 0.00 0.00 82 1011.3
20260905230135 21 126 0.0 0.0 0.00 0.00 0.00 80 1011.3
20260905225914 21 126 1.6 1.6 0.00 0.00 0.00 81 1011.3
20260905224635 21 126 0.0 0.0 0.00 0.00 0.00 82 1011.3
20260905223135 21 126 0.0 0.0 0.00 0.00 0.00 79 1011.4
20260905221635 21 126 0.0 0.0 0.00 0.00 0.00 77 1011.4
20260905221414 21 126 0.0 0.0 0.00 0.00 0.00 77 1011.5
20260905220135 22 126 0.0 0.0 0.00 0.00 0.00 73 1011.5
20260905214635 23 126 0.0 0.0 0.00 0.00 0.00 72 1011.6
20260905214414 23 126 0.0 0.0 0.00 0.00 0.00 71 1011.8
20260905213134 23 126 0.0 0.0 0.00 0.00 0.00 70 1011.8
20260905211634 23 126 0.0 0.0 0.00 0.00 0.00 70 1011.8
20260905211413 23 126 0.0 0.0 0.00 0.00 0.00 72 1011.9
20260905210134 22 126 0.0 0.0 0.00 0.00 0.00 69 1011.9
20260905205912 22 126 0.0 1.6 0.00 0.00 0.00 68 1011.9
20260905204634 23 126 0.0 1.6 0.00 0.00 0.00 73 1011.9
20260905204414 23 126 0.0 1.6 0.00 0.00 0.00 70 1012.1